EW4052 Weather Reports


time (UTC)temp
F
wind
direction
speed
knots
gust
knots
rain 1hr
in
rain 24hr
in
rain mn
in
humidity
%
barometer
mb
20260902234518 82 96 0.0 0.0 0.00 0.08 0.08 65 1008.0
20260902233014 82 101 0.0 0.0 0.00 0.08 0.08 67 1008.1
20260902231512 83 105 0.0 3.5 0.00 0.08 0.08 69 1008.1
20260902230005 83 300 0.0 0.0 0.00 0.08 0.08 68 1008.2
20260902224607 82 300 0.0 0.0 0.00 0.08 0.08 67 1008.2
20260902223056 83 300 0.0 0.0 0.00 0.08 0.08 69 1008.1
20260902221552 83 301 0.0 4.3 0.00 0.08 0.08 69 1008.1
20260902220048 84 22 0.0 2.6 0.00 0.08 0.08 68 1008.2
20260902214543 84 143 0.0 3.5 0.00 0.08 0.08 68 1008.3
20260902213037 85 254 0.0 3.5 0.00 0.08 0.08 67 1008.4
20260902211532 85 302 0.0 3.5 0.00 0.08 0.08 66 1008.5
20260902210047 85 263 0.0 0.9 0.00 0.08 0.08 66 1008.7
20260902204528 85 233 0.0 3.5 0.00 0.08 0.08 65 1008.8
20260902203019 86 305 0.0 2.6 0.00 0.08 0.08 66 1009.0
20260902201514 86 271 0.0 0.0 0.00 0.08 0.08 64 1009.1
20260902200011 85 311 0.0 2.6 0.00 0.08 0.08 65 1009.3
20260902194506 85 349 0.0 0.0 0.00 0.08 0.08 67 1009.5
20260902193001 84 186 0.0 2.6 0.00 0.08 0.08 68 1009.6
20260902191604 83 284 0.0 0.9 0.00 0.08 0.08 68 1009.6
20260902190059 82 288 0.0 0.0 0.00 0.08 0.08 68 1009.6
20260902184555 82 294 0.0 0.0 0.00 0.09 0.08 67 1009.8
20260902183051 83 294 0.0 1.7 0.00 0.09 0.08 66 1009.9
20260902181555 83 295 0.0 0.0 0.00 0.09 0.08 68 1010.3
20260902180100 82 293 0.0 2.6 0.00 0.09 0.08 69 1010.4
20260902174537 80 285 0.0 3.5 0.00 0.22 0.08 69 1010.0
20260902173034 78 319 0.0 0.0 0.00 0.22 0.08 66 1010.2
20260902171529 75 355 0.0 0.9 0.00 0.22 0.08 40 1010.6
20260902170029 71 355 2.6 5.2 0.00 0.22 0.08 100 1010.6
20260902164529 69 299 0.0 0.0 0.00 0.22 0.08 100 1011.1
20260902163027 68 216 0.0 0.0 0.00 0.22 0.08 100 1010.5
20260902161520 68 215 0.0 0.0 0.00 0.22 0.08 100 1011.8
20260902160014 68 215 0.0 0.0 0.00 0.22 0.08 100 1011.7
20260902154511 67 227 0.0 0.0 0.00 0.22 0.08 100 1011.6
20260902153007 67 227 0.0 0.0 0.00 0.22 0.08 100 1011.5
20260902151505 68 227 0.0 0.0 0.00 0.22 0.08 100 1011.4
20260902150057 67 227 0.0 0.0 0.00 0.22 0.08 100 1010.8
20260902144601 67 227 0.0 0.0 0.00 0.22 0.08 100 1010.3
20260902143052 67 227 0.0 0.0 0.00 0.22 0.08 100 1010.4
20260902141543 0 227 0.0 0.0 0.00 0.22 0.08 1010.5
20260902140039 0 227 0.0 0.0 0.00 0.22 0.08 1010.5
20260902134536 0 221 0.0 0.0 0.00 0.22 0.08 1010.6
20260902133031 0 220 0.0 0.0 0.00 0.22 0.08 1010.9
20260902131527 0 208 0.0 0.0 0.00 0.22 0.08 1010.2
20260902130027 0 208 0.0 0.0 0.00 0.22 0.08 1009.7
20260902124517 0 208 0.0 0.0 0.00 0.22 0.08 1010.2
20260902123013 0 207 0.0 0.0 0.00 0.22 0.08 1010.0
20260902121508 0 207 0.0 0.0 0.00 0.22 0.08 1009.7
20260902120004 0 208 0.0 0.0 0.00 0.22 0.08 1010.2
20260902114600 0 208 0.9 9.6 0.00 0.22 0.08 1010.7
20260902113057 0 29 0.0 13.0 0.00 0.22 0.08 1009.6
20260902111551 0 259 0.0 0.0 0.00 0.22 0.08 1010.4
20260902110045 0 263 0.0 0.0 0.01 0.22 0.08 1010.1
20260902104543 63 54 0.0 0.0 0.01 0.22 0.08 100 1010.2
20260902103037 64 54 0.0 0.0 0.02 0.22 0.08 100 1009.7
20260902101537 64 58 0.0 0.0 0.04 0.22 0.08 100 1010.8
20260902100033 64 49 0.0 0.0 0.03 0.21 0.07 100 1011.5
20260902094532 64 49 0.0 0.0 0.04 0.21 0.07 100 1011.3
20260902093034 65 49 0.0 0.0 0.06 0.20 0.06 100 1012.0
20260902091523 66 277 0.0 0.0 0.04 0.18 0.04 100 1012.6
20260902090014 67 311 0.0 10.4 0.04 0.18 0.04 100 1012.6
20260902084511 69 265 13.9 31.3 0.03 0.17 0.03 28 1014.6
20260902083007 70 32 0.0 8.7 0.00 0.14 0.00 37 1010.7
20260902081502 70 117 0.0 0.0 0.00 0.14 0.00 40 1010.3
20260902080112 70 49 0.9 6.1 0.00 0.14 0.00 46 1010.5
20260902074552 71 29 3.5 8.7 0.00 0.14 0.00 50 1010.8
20260902073049 71 34 1.7 8.7 0.00 0.14 0.00 52 1010.8
20260902071544 72 321 7.8 10.4 0.00 0.14 0.00 46 1011.2
20260902070039 72 355 9.6 13.9 0.00 0.14 0.00 49 1010.9
20260902064535 73 355 9.6 19.1 0.00 0.14 0.00 49 1010.9
20260902063036 73 316 15.6 22.6 0.00 0.14 0.00 100 1010.8
20260902061542 72 51 0.0 0.0 0.00 0.14 0.00 100 1009.9
20260902060021 73 51 0.0 0.0 0.00 0.14 0.00 100 1009.5
20260902054516 73 51 0.0 0.0 0.00 0.14 0.00 100 1009.2
20260902053013 73 51 0.0 0.0 0.00 0.14 0.00 100 1009.3
20260902051509 73 51 0.0 0.0 0.00 0.14 0.00 100 1009.5
20260902050009 73 51 0.0 0.0 0.00 0.14 0.00 100 1009.6
20260902044559 73 51 0.0 0.0 0.00 0.14 0.14 100 1009.4
20260902043055 74 56 0.0 0.0 0.00 0.14 0.14 100 1009.3
20260902041553 74 64 0.0 0.0 0.00 0.14 0.14 100 1009.3
20260902040046 75 64 0.0 0.0 0.00 0.14 0.14 100 1009.6
20260902034554 76 64 0.0 0.0 0.00 0.14 0.14 100 1009.7
20260902033053 76 66 0.0 5.2 0.00 0.14 0.14 2 1009.7
20260902031532 77 123 0.0 0.0 0.00 0.14 0.14 15 1009.8
20260902030028 77 25 0.0 0.0 0.00 0.14 0.14 16 1010.2
20260902024523 77 32 0.0 0.0 0.00 0.14 0.14 25 1010.0
20260902023019 77 32 0.0 0.0 0.00 0.14 0.14 33 1010.0
20260902021523 78 23 0.0 0.0 0.00 0.14 0.14 39 1009.7
20260902020012 78 23 0.0 0.0 0.00 0.14 0.14 38 1009.9
20260902014506 78 15 0.0 2.6 0.00 0.14 0.14 36 1009.7
20260902013002 78 15 0.0 0.0 0.00 0.14 0.14 26 1009.8
20260902011559 79 15 0.0 0.0 0.00 0.14 0.14 28 1009.7
20260902010057 79 15 0.0 0.0 0.00 0.14 0.14 35 1009.7
20260902004548 80 15 0.0 0.0 0.00 0.14 0.14 42 1009.6
20260902003043 81 15 0.0 0.0 0.00 0.14 0.14 50 1009.6
20260902001541 83 15 0.0 0.0 0.00 0.14 0.14 55 1009.6
20260902000038 83 13 0.0 0.0 0.00 0.14 0.14 59 1009.7